FW0338 Weather Reports


time (UTC)temp
C
wind
direction
speed
KPH
gust
KPH
rain 1hr
cm
rain 24hr
cm
rain mn
cm
humidity
%
barometer
mb
20260506193431 -17 0.0 0.0 0.00 0.00 0.00
20260506192929 -17 0.0 0.0 0.00 0.00 0.00
20260506192404 -17 0.0 0.0 0.00 0.00 0.00
20260506191902 -17 0.0 0.0 0.00 0.00 0.00
20260506191329 26 167 3.2 6.4 0.00 0.00 0.00 90 1009.2
20260506190831 26 167 3.2 9.7 0.00 0.00 0.00 90 1009.2
20260506190330 26 182 1.6 9.7 0.00 0.00 0.00 90 1009.6
20260506185830 26 186 1.6 4.8 0.00 0.00 0.00 92 1009.6
20260506185330 26 186 3.2 9.7 0.00 0.00 0.00 92 1009.7
20260506185052 26 186 3.2 9.7 0.00 0.00 0.00 93 1009.6
20260506184330 26 168 3.2 8.0 0.00 0.00 0.00 93 1009.8
20260506183831 26 150 3.2 4.8 0.00 0.00 0.00 92 1010.0
20260506183330 26 180 1.6 4.8 0.00 0.00 0.00 93 1010.2
20260506182830 26 185 1.6 4.8 0.00 0.00 0.00 92 1010.3
20260506182329 26 185 1.6 4.8 0.00 0.00 0.00 92 1010.3
20260506181830 26 180 1.6 3.2 0.00 0.00 0.00 93 1010.4
20260506181330 26 180 0.0 6.4 0.00 0.00 0.00 93 1010.5
20260506180829 26 184 1.6 6.4 0.00 0.00 0.00 93 1010.4
20260506180330 25 161 1.6 6.4 0.00 0.00 0.00 93 1010.5
20260506175830 26 162 3.2 6.4 0.00 0.00 0.00 93 1010.6
20260506175330 26 188 1.6 6.4 0.00 0.00 0.00 92 1010.5
20260506174830 26 186 3.2 6.4 0.00 0.00 0.00 92 1010.7
20260506174330 26 182 3.2 6.4 0.00 0.00 0.00 92 1010.8
20260506173830 26 178 3.2 8.0 0.00 0.00 0.00 93 1010.9
20260506173330 26 166 3.2 12.9 0.00 0.00 0.00 93 1010.8
20260506172830 25 171 3.2 12.9 0.00 0.00 0.00 94 1010.7
20260506172330 25 155 0.0 4.8 0.00 0.00 0.00 95 1010.8
20260506171830 25 155 3.2 6.4 0.00 0.00 0.00 95 1010.8
20260506171329 25 141 1.6 6.4 0.00 0.00 0.00 95 1010.8
20260506170829 25 130 1.6 4.8 0.00 0.00 0.00 95 1010.9
20260506170330 25 150 1.6 3.2 0.00 0.00 0.00 96 1010.9
20260506165830 25 152 0.0 0.0 0.00 0.00 0.00 96 1010.8
20260506165330 24 152 0.0 0.0 0.00 0.00 0.00 96 1010.9
20260506164830 24 152 0.0 3.2 0.00 0.00 0.00 96 1011.1
20260506164330 24 152 0.0 3.2 0.00 0.00 0.00 96 1010.9
20260506163830 24 128 0.0 3.2 0.00 0.00 0.00 96 1011.1
20260506163330 24 128 0.0 3.2 0.00 0.00 0.00 96 1011.0
20260506162830 24 128 1.6 3.2 0.00 0.00 0.00 96 1011.2
20260506162330 24 128 1.6 3.2 0.00 0.00 0.00 96 1011.2
20260506161830 24 118 1.6 4.8 0.00 0.00 0.00 96 1011.2
20260506161330 24 175 1.6 6.4 0.00 0.00 0.00 96 1011.1
20260506160830 24 132 1.6 6.4 0.00 0.00 0.00 96 1011.1
20260506160329 24 178 1.6 6.4 0.00 0.00 0.00 96 1011.0
20260506155831 24 158 3.2 6.4 0.00 0.00 0.00 96 1011.0
20260506155330 24 159 3.2 6.4 0.00 0.00 0.00 96 1011.0
20260506154830 24 205 4.8 6.4 0.00 0.00 0.00 96 1011.0
20260506154550 24 165 1.6 6.4 0.00 0.00 0.00 96 1011.0
20260506153826 24 165 1.6 6.4 0.00 0.00 0.00 96 1011.0
20260506153319 24 165 3.2 6.4 0.00 0.00 0.00 96 1010.8
20260506152820 24 163 0.0 3.2 0.00 0.00 0.00 96 1010.7
20260506152539 23 163 0.0 3.2 0.00 0.00 0.00 96 1010.7
20260506152257 23 163 0.0 3.2 0.00 0.00 0.00 96 1010.7
20260506151305 23 163 1.6 4.8 0.00 0.00 0.00 96 1010.8
20260506150804 23 142 1.6 4.8 0.00 0.00 0.00 95 1010.9
20260506150305 23 154 1.6 4.8 0.00 0.00 0.00 95 1010.9
20260506145803 23 154 1.6 4.8 0.00 0.00 0.00 95 1011.0
20260506145305 23 153 0.0 6.4 0.00 0.00 0.00 95 1010.9
20260506144802 24 109 1.6 6.4 0.00 0.00 0.00 95 1010.9
20260506144302 24 190 3.2 6.4 0.00 0.00 0.00 95 1010.8
20260506144022 24 172 3.2 6.4 0.00 0.00 0.00 95 1010.8
20260506143302 24 160 3.2 4.8 0.00 0.00 0.00 95 1010.8
20260506142802 24 158 1.6 6.4 0.00 0.00 0.00 95 1010.8
20260506142305 24 153 3.2 6.4 0.00 0.00 0.00 95 1010.7
20260506141801 23 165 3.2 6.4 0.00 0.00 0.00 95 1010.8
20260506141301 24 169 3.2 6.4 0.00 0.00 0.00 95 1010.7
20260506140803 23 167 1.6 6.4 0.00 0.00 0.00 95 1010.8
20260506140520 23 167 3.2 6.4 0.00 0.00 0.00 95 1010.9
20260506135801 23 130 1.6 6.4 0.00 0.00 0.00 95 1010.8
20260506135306 23 124 3.2 6.4 0.00 0.00 0.00 95 1010.8
20260506134804 23 209 0.0 0.0 0.00 0.00 0.00 95 1010.7
20260506134526 23 209 0.0 0.0 0.00 0.00 0.00 95 1010.7
20260506133803 23 209 0.0 6.4 0.00 0.00 0.00 95 1010.6
20260506133303 23 209 0.0 8.0 0.00 0.00 0.00 95 1010.5
20260506132803 23 160 4.8 8.0 0.00 0.00 0.00 96 1010.4
20260506132307 23 169 1.6 8.0 0.00 0.00 0.00 96 1010.5
20260506131804 23 169 3.2 8.0 0.00 0.00 0.00 96 1010.6
20260506131303 23 175 1.6 8.0 0.00 0.00 0.00 96 1010.5
20260506131025 23 177 3.2 8.0 0.00 0.00 0.00 96 1010.4
20260506130735 23 175 3.2 6.4 0.00 0.00 0.00 96 1010.5
20260506125742 23 189 3.2 8.0 0.00 0.00 0.00 96 1010.3
20260506125232 23 175 3.2 8.0 0.00 0.00 0.00 97 1010.3
20260506124731 23 185 4.8 8.0 0.00 0.00 0.00 97 1010.2
20260506124232 23 178 3.2 8.0 0.00 0.00 0.00 97 1010.0
20260506123731 22 169 1.6 8.0 0.00 0.00 0.00 97 1010.0
20260506123232 22 136 3.2 8.0 0.00 0.00 0.00 97 1009.9
20260506122731 22 174 3.2 8.0 0.00 0.00 0.00 97 1009.9
20260506122231 22 195 1.6 6.4 0.00 0.00 0.00 97 1009.8
20260506121952 22 175 3.2 4.8 0.00 0.00 0.00 97 1009.8
20260506121231 22 175 3.2 4.8 0.00 0.00 0.00 97 1009.8
20260506120731 22 174 3.2 4.8 0.00 0.00 0.00 97 1009.8
20260506120230 22 178 1.6 4.8 0.00 0.00 0.00 97 1009.8
20260506115731 22 178 0.0 4.8 0.00 0.00 0.00 97 1009.6
20260506115447 22 178 1.6 3.2 0.00 0.00 0.00 97 1009.6
20260506114954 22 179 1.6 3.2 0.00 0.00 0.00 97 1009.6
20260506114717 22 179 3.2 3.2 0.00 0.00 0.00 97 1009.5
20260506113729 22 182 0.0 4.8 0.00 0.00 0.00 97 1009.4
20260506113448 22 183 1.6 4.8 0.00 0.00 0.00 97 1009.3
20260506113432 22 182 1.6 4.8 0.00 0.00 0.00 97 1009.4
20260506112229 22 184 1.6 3.2 0.00 0.00 0.00 97 1009.2
20260506111947 22 184 3.2 3.2 0.00 0.00 0.00 97 1009.2
20260506111229 22 184 3.2 6.4 0.00 0.00 0.00 97 1009.1
20260506110729 22 184 1.6 6.4 0.00 0.00 0.00 97 1009.0
20260506110228 22 161 0.0 8.0 0.00 0.00 0.00 97 1008.9
20260506105728 22 170 3.2 8.0 0.00 0.00 0.00 96 1009.0
20260506105228 22 178 0.0 6.4 0.00 0.00 0.00 96 1008.9
20260506104728 22 178 1.6 8.0 0.00 0.00 0.00 96 1008.9
20260506104229 22 169 4.8 8.0 0.00 0.00 0.00 96 1008.9
20260506103949 22 165 3.2 8.0 0.00 0.00 0.00 96 1008.8
20260506103230 22 167 3.2 8.0 0.00 0.00 0.00 96 1008.7
20260506102729 22 184 0.0 8.0 0.00 0.00 0.00 96 1008.7
20260506102229 22 186 3.2 8.0 0.00 0.00 0.00 96 1008.7
20260506101729 22 161 4.8 8.0 0.00 0.00 0.00 96 1008.8
20260506101228 22 198 1.6 4.8 0.00 0.00 0.00 96 1008.7
20260506100729 22 213 0.0 0.0 0.00 0.00 0.00 96 1008.8
20260506100229 22 213 0.0 0.0 0.00 0.00 0.00 96 1008.8
20260506095729 22 213 0.0 0.0 0.00 0.00 0.00 96 1008.9
20260506095229 22 213 0.0 0.0 0.00 0.00 0.00 96 1009.0
20260506094728 22 213 0.0 0.0 0.00 0.00 0.00 96 1009.0
20260506094231 22 213 0.0 0.0 0.00 0.00 0.00 95 1008.9
20260506094209 22 213 0.0 0.0 0.00 0.00 0.00 95 1009.0
20260506093230 22 213 0.0 0.0 0.00 0.00 0.00 95 1009.1
20260506093213 22 213 0.0 1.6 0.00 0.00 0.00 95 1009.2
20260506092230 22 213 0.0 3.2 0.00 0.00 0.00 95 1009.1
20260506091730 21 213 1.6 3.2 0.00 0.00 0.00 95 1009.2
20260506091230 21 213 0.0 1.6 0.00 0.00 0.00 94 1009.1
20260506090731 21 213 0.0 0.0 0.00 0.00 0.00 94 1009.2
20260506090231 21 213 0.0 0.0 0.00 0.00 0.00 94 1009.2
20260506085730 22 213 0.0 0.0 0.00 0.00 0.00 94 1009.0
20260506085230 22 213 0.0 1.6 0.00 0.00 0.00 93 1009.1
20260506084729 22 213 0.0 1.6 0.00 0.00 0.00 94 1009.2
20260506084230 22 213 0.0 4.8 0.00 0.00 0.00 94 1009.2
20260506083954 22 213 0.0 4.8 0.00 0.00 0.00 94 1009.1
20260506083230 22 181 1.6 4.8 0.00 0.00 0.00 94 1009.3
20260506082731 22 236 1.6 6.4 0.00 0.00 0.00 94 1009.2
20260506082230 22 236 3.2 6.4 0.00 0.00 0.00 94 1009.2
20260506081730 22 187 3.2 6.4 0.00 0.00 0.00 94 1009.2
20260506081230 22 180 3.2 6.4 0.00 0.00 0.00 93 1008.9
20260506080730 22 172 3.2 8.0 0.00 0.00 0.00 94 1008.9
20260506080230 22 178 3.2 8.0 0.00 0.00 0.00 94 1009.0
20260506073230 22 178 3.2 8.0 0.00 0.00 0.00 94 1009.3
20260506072730 22 182 3.2 11.3 0.00 0.00 0.00 94 1009.4
20260506072229 22 177 4.8 11.3 0.00 0.00 0.00 94 1009.4
20260506071730 22 207 4.8 8.0 0.00 0.00 0.00 95 1009.3
20260506071230 22 174 3.2 8.0 0.00 0.00 0.00 95 1009.2
20260506070730 22 174 3.2 8.0 0.00 0.00 0.00 95 1009.2
20260506070230 22 176 4.8 8.0 0.00 0.00 0.00 95 1009.2
20260506062229 21 155 3.2 4.8 0.00 0.00 0.00 95 1009.4
20260506061729 21 148 1.6 4.8 0.00 0.00 0.00 95 1009.4
20260506061229 22 148 3.2 6.4 0.00 0.00 0.00 95 1009.4
20260506060729 22 148 1.6 6.4 0.00 0.00 0.00 95 1009.4
20260506060228 22 157 3.2 4.8 0.00 0.00 0.00 95 1009.4
20260506051232 22 182 3.2 6.4 0.00 0.00 0.00 93 1009.7
20260506050731 22 182 3.2 6.4 0.00 0.00 0.00 93 1009.7
20260506050231 22 155 1.6 4.8 0.00 0.00 0.00 93 1009.8
20260506044919 22 175 3.2 8.0 0.00 0.00 0.00 93 1009.8
20260506044908 22 173 3.2 6.4 0.00 0.00 0.00 93 1009.8
20260506043934 22 176 3.2 8.0 0.00 0.00 0.00 93 1009.7
20260506043204 22 169 4.8 8.0 0.00 0.00 0.00 92 1009.7
20260506042703 22 178 3.2 9.7 0.00 0.00 0.00 92 1009.6
20260506042204 22 239 4.8 9.7 0.00 0.00 0.00 92 1009.7
20260506041703 22 175 4.8 8.0 0.00 0.00 0.00 92 1009.7
20260506041427 23 169 4.8 8.0 0.00 0.00 0.00 92 1009.6
20260506040704 23 146 3.2 8.0 0.00 0.00 0.00 91 1009.7
20260506040204 23 176 3.2 8.0 0.00 0.00 0.00 91 1009.7
20260506035703 23 163 4.8 8.0 0.00 0.00 0.00 91 1009.6
20260506035154 23 182 3.2 6.4 0.00 0.00 0.00 91 1009.6
20260506034648 23 168 1.6 6.4 0.00 0.00 0.00 91 1009.6
20260506034144 23 168 1.6 6.4 0.00 0.00 0.00 90 1009.6
20260506033639 23 166 3.2 8.0 0.00 0.00 0.00 90 1009.6
20260506033135 23 166 3.2 8.0 0.00 0.00 0.00 90 1009.4
20260506032632 23 187 3.2 8.0 0.00 0.00 0.00 89 1009.2
20260506032131 23 190 3.2 11.3 0.00 0.00 0.00 89 1009.3
20260506031632 23 171 6.4 11.3 0.00 0.00 0.00 89 1009.3
20260506031131 23 178 4.8 8.0 0.00 0.00 0.00 88 1009.2
20260506030630 23 178 3.2 16.1 0.00 0.00 0.00 88 1009.1
20260506030357 24 171 4.8 16.1 0.00 0.00 0.00 88 1009.1
20260506025631 24 174 6.4 12.9 0.00 0.00 0.00 88 1009.0
20260506025131 24 157 4.8 9.7 0.00 0.00 0.00 87 1008.9
20260506024631 24 165 4.8 12.9 0.00 0.00 0.00 87 1008.9
20260506024353 24 171 6.4 14.5 0.00 0.00 0.00 87 1008.8
20260506023632 24 192 9.7 14.5 0.00 0.00 0.00 87 1008.9
20260506023131 24 183 4.8 9.7 0.00 0.00 0.00 87 1008.7
20260506022628 24 163 4.8 9.7 0.00 0.00 0.00 87 1008.7
20260506022129 24 182 6.4 11.3 0.00 0.00 0.00 87 1008.7
20260506021629 24 169 6.4 11.3 0.00 0.00 0.00 87 1008.6
20260506021129 24 153 6.4 11.3 0.00 0.00 0.00 87 1008.5
20260506020629 24 193 6.4 17.7 0.00 0.00 0.00 87 1008.4
20260506020129 24 181 6.4 17.7 0.00 0.00 0.00 87 1008.3
20260506015629 25 182 6.4 14.5 0.00 0.00 0.00 87 1008.3
20260506015400 25 155 6.4 17.7 0.00 0.00 0.00 87 1008.2
20260506014848 25 207 9.7 17.7 0.00 0.00 0.00 87 1008.3
20260506014129 25 158 6.4 16.1 0.00 0.00 0.00 87 1008.2
20260506013629 25 163 4.8 11.3 0.00 0.00 0.00 87 1008.2
20260506013129 25 178 4.8 8.0 0.00 0.00 0.00 87 1008.2
20260506012852 25 175 3.2 9.7 0.00 0.00 0.00 87 1008.3
20260506012128 25 158 6.4 9.7 0.00 0.00 0.00 86 1008.2
20260506011629 25 182 4.8 8.0 0.00 0.00 0.00 86 1008.0
20260506011348 25 168 4.8 8.0 0.00 0.00 0.00 86 1007.9
20260506010629 25 170 4.8 12.9 0.00 0.00 0.00 86 1008.0
20260506010129 25 186 4.8 12.9 0.00 0.00 0.00 86 1007.7
20260506005629 25 188 3.2 8.0 0.00 0.00 0.00 86 1007.7
20260506005129 25 189 3.2 11.3 0.00 0.00 0.00 86 1007.6
20260506004629 25 180 4.8 12.9 0.00 0.00 0.00 86 1007.6
20260506004128 25 180 8.0 12.9 0.00 0.00 0.00 85 1007.5
20260506003629 25 221 3.2 12.9 0.00 0.00 0.00 85 1007.6
20260506003129 25 171 6.4 12.9 0.00 0.00 0.00 85 1007.6
20260506002629 25 171 6.4 11.3 0.00 0.00 0.00 85 1007.6
20260506002129 25 172 6.4 11.3 0.00 0.00 0.00 85 1007.7
20260506001629 25 187 6.4 12.9 0.00 0.00 0.00 85 1007.6
20260506001129 25 161 6.4 12.9 0.00 0.00 0.00 85 1007.5
20260506000629 25 176 6.4 12.9 0.00 0.00 0.00 85 1007.4
20260506000129 26 178 6.4 9.7 0.00 0.00 0.00 85 1007.6
20260505235629 26 182 4.8 8.0 0.00 0.00 0.00 86 1007.5
20260505235129 26 178 4.8 8.0 0.00 0.00 0.00 85 1007.6
20260505234629 26 171 4.8 9.7 0.00 0.00 0.00 85 1007.6
20260505234613 26 150 4.8 12.9 0.00 0.00 0.00 85 1007.7
20260505233629 26 179 6.4 12.9 0.00 0.00 0.00 85 1007.7
20260505233129 26 174 4.8 9.7 0.00 0.00 0.00 85 1007.7
20260505232628 26 183 4.8 9.7 0.00 0.00 0.00 85 1007.7
20260505232129 26 165 6.4 9.7 0.00 0.00 0.00 85 1007.6
20260505231628 26 182 6.4 9.7 0.00 0.00 0.00 85 1007.7
20260505231131 26 163 6.4 9.7 0.00 0.00 0.00 86 1007.6
20260505230632 26 173 4.8 9.7 0.00 0.00 0.00 86 1007.6
20260505230131 26 171 4.8 11.3 0.00 0.00 0.00 85 1007.6
20260505225631 26 182 8.0 11.3 0.00 0.00 0.00 85 1007.6
20260505225132 26 188 6.4 11.3 0.00 0.00 0.00 85 1007.6
20260505224854 26 183 4.8 11.3 0.00 0.00 0.00 86 1007.6
20260505224131 26 172 4.8 11.3 0.00 0.00 0.00 85 1007.7
20260505223631 26 173 4.8 11.3 0.00 0.00 0.00 86 1007.4
20260505223131 26 175 6.4 9.7 0.00 0.00 0.00 86 1007.7
20260505222630 26 173 3.2 9.7 0.00 0.00 0.00 86 1007.7
20260505222131 26 183 3.2 8.0 0.00 0.00 0.00 86 1007.6
20260505221627 26 172 3.2 8.0 0.00 0.00 0.00 86 1007.7
20260505221120 25 176 4.8 8.0 0.00 0.00 0.00 86 1007.8
20260505220621 25 172 3.2 9.7 0.00 0.00 0.00 87 1007.7
20260505220121 25 159 4.8 9.7 0.00 0.00 0.00 86 1007.9
20260505215616 25 183 4.8 8.0 0.00 0.00 0.00 86 1007.9
20260505215116 25 182 4.8 6.4 0.00 0.00 0.00 87 1007.9
20260505214611 25 176 3.2 6.4 0.00 0.00 0.00 86 1008.1
20260505214111 25 191 4.8 6.4 0.00 0.00 0.00 86 1008.1
20260505213607 25 182 1.6 9.7 0.00 0.00 0.00 87 1008.1
20260505213107 25 185 3.2 9.7 0.00 0.00 0.00 86 1008.1
20260505212607 25 174 3.2 9.7 0.00 0.00 0.00 85 1008.1
20260505212323 26 178 4.8 11.3 0.00 0.00 0.00 86 1007.9
20260505211603 26 180 4.8 11.3 0.00 0.00 0.00 85 1008.0
20260505211101 26 179 4.8 9.7 0.00 0.00 0.00 85 1008.1
20260505210601 26 184 3.2 8.0 0.00 0.00 0.00 85 1008.2
20260505205822 26 165 3.2 8.0 0.00 0.00 0.00 84 1008.1
20260505205101 26 196 3.2 8.0 0.00 0.00 0.00 84 1008.2
20260505204601 26 169 3.2 8.0 0.00 0.00 0.00 85 1008.1
20260505204320 26 175 4.8 9.7 0.00 0.00 0.00 85 1008.2
20260505203601 25 179 4.8 9.7 0.00 0.00 0.00 84 1008.3
20260505203100 25 171 4.8 11.3 0.00 0.00 0.00 84 1008.4
20260505202600 25 178 4.8 11.3 0.00 0.00 0.00 84 1008.4
20260505202101 25 192 4.8 9.7 0.00 0.00 0.00 84 1008.3
20260505201601 25 159 4.8 9.7 0.00 0.00 0.00 84 1008.4
20260505201101 25 184 4.8 9.7 0.00 0.00 0.00 84 1008.5
20260505200604 25 176 3.2 9.7 0.00 0.00 0.00 83 1008.5
20260505200104 25 179 4.8 9.7 0.00 0.00 0.00 84 1008.5
20260505195828 25 188 4.8 9.7 0.00 0.00 0.00 83 1008.5
20260505195104 25 187 3.2 8.0 0.00 0.00 0.00 84 1008.6
20260505194603 25 161 4.8 9.7 0.00 0.00 0.00 83 1008.7
20260505194053 25 169 6.4 11.3 0.00 0.00 0.00 83 1008.8
20260505193815 25 170 4.8 11.3 0.00 0.00 0.00 83 1008.7